Location: Caltech
(34.1382°N, 118.1253°W)
Time: 00:44:17
(UTC-07:00)

Iridium 75 - Visible Passes

Search period start: 29 May 2016 00:00
Search period end: 08 June 2016 00:00
Orbit: 776 x 779 km, 86.4° (Epoch: 29 May)

Date Brightness Start Highest point End Pass type
(mag) Time Alt. Az. Time Alt. Az. Time Alt. Az.
29 May 6.0 21:42:50 10° N 21:48:05 88° W 21:50:58 27° S visible
30 May 6.3 21:09:30 10° N 21:14:32 47° E 21:17:54 20° SSE visible
30 May 8.5 22:51:43 10° NW 22:54:46 16° W 22:57:47 10° WSW visible
31 May 7.2 20:36:38 10° NNE 20:40:51 25° E 20:44:53 11° SE visible
31 May 7.6 22:17:00 10° NNW 22:21:30 30° W 22:25:22 13° SW visible
01 Jun 6.5 21:43:00 10° N 21:48:08 59° W 21:52:21 15° SSW visible
02 Jun 6.0 21:09:26 10° N 21:14:40 71° E 21:19:22 13° S visible
02 Jun 9.0 22:54:23 10° WNW 22:54:38 10° WNW 22:54:53 10° W visible
03 Jun 6.7 20:36:16 10° NNE 20:41:03 36° E 20:45:50 10° SSE visible
03 Jun 8.3 22:17:41 10° NW 22:21:27 20° W 22:25:13 10° SW visible
04 Jun 7.3 21:43:20 10° NNW 21:48:10 39° W 21:52:58 10° SSW visible
05 Jun 6.2 21:09:31 10° N 21:14:45 77° W 21:19:56 10° S visible
06 Jun 6.2 20:36:06 10° N 20:41:13 54° E 20:46:18 10° SSE visible
06 Jun 8.7 22:18:51 10° NW 22:21:22 14° W 22:23:52 10° WSW visible
07 Jun 8.0 21:43:50 10° NNW 21:48:07 26° W 21:52:24 10° SW visible
